Wind_Speed
2 2 2 2 3 3 3 4 4 3 3 3 2 2 3 3 3 3 3 3 3 3 3 3 2 2 2 3 3 3 3 4 4 5 6 6 6 6 6 7 7 7 7
1 1 1 2 2 2 2 2 3 3 3 2 2 2 2 3 2 3 3 3 3 3 3 3 3 3 3 3 4 4 4 5 5 6 6 7 8 7 8 8 9 9 9
1 0 2 2 1 1 1 1 2 2 2 2 2 2 2 2 3 3 3 3 4 4 4 4 5 5 5 4 5 5 5 5 6 6 7 7 8 8 9 9 9 10 10
2 1 1 2 3 2 2 2 2 2 2 2 2 3 3 3 4 4 4 5 5 5 5 5 6 6 7 7 6 6 7 7 8 8 9 9 9 9 9 9 10 10 10
3 3 3 3 3 4 3 3 3 3 3 4 4 4 5 5 5 5 5 6 7 7 7 7 8 8 9 9 9 9 9 9 10 10 11 11 11 11 11 11 11 12 12
4 4 4 4 4 5 5 5 5 5 5 6 6 7 7 8 7 8 8 8 8 9 9 10 10 10 10 11 11 11 11 11 12 12 13 13 13 13 13 14 14 13 13
4 5 5 5 5 5 6 6 7 7 7 7 8 8 9 10 10 10 10 10 11 11 11 11 12 12 12 12 13 13 13 14 14 14 15 15 15 15 16 16 16 15 15
6 6 6 6 5 6 7 7 7 7 8 9 9 10 10 11 12 12 12 13 13 13 13 13 13 14 14 14 14 15 16 16 16 16 17 17 17 18 18 18 17 17 17
7 7 7 6 7 7 8 8 9 9 10 10 11 11 12 13 13 13 13 14 14 14 14 14 14 15 15 16 17 17 17 18 18 18 18 18 19 19 20 19 19 19 19
8 8 8 8 8 9 9 10 10 11 11 11 12 12 13 14 14 14 14 15 15 16 16 16 16 16 17 18 18 18 18 19 19 19 19 19 19 20 21 20 20 21 22
9 9 9 9 10 10 10 11 12 12 13 13 13 14 15 16 16 16 16 16 17 18 18 19 18 18 18 18 18 19 20 20 20 20 20 20 21 21 21 21 21 22 22
10 10 10 11 11 11 11 12 13 13 14 14 15 15 15 16 17 17 18 18 18 19 20 20 20 19 20 20 20 21 21 22 21 21 22 22 22 22 22 22 22 22 23
11 11 11 11 11 12 12 13 14 14 14 15 15 15 16 17 18 18 18 19 19 20 20 21 21 20 21 21 22 23 22 22 23 23 23 23 23 23 23 23 23 24 24
13 12 12 12 12 13 13 14 14 14 15 16 16 17 17 18 18 19 19 20 21 21 21 21 22 22 22 22 23 23 23 24 24 24 25 24 24 25 25 25 25 26 26
13 13 14 14 14 14 14 14 14 14 15 16 17 17 18 19 19 18 19 19 20 20 21 21 21 22 22 23 23 24 24 24 25 25 25 26 25 25 25 25 26 26 26
14 15 14 14 14 13 13 13 14 14 15 16 17 18 19 19 19 19 19 19 19 20 21 22 22 22 23 24 25 25 25 25 25 25 25 25 25 26 26 26 27 27 28
16 16 15 15 15 15 15 15 15 15 16 17 17 18 19 19 19 19 19 19 20 20 21 21 23 23 24 25 25 26 26 26 26 25 25 26 26 27 27 27 27 28 29
17 17 17 16 16 16 16 17 17 17 17 17 18 18 19 19 20 20 19 20 20 21 21 22 23 23 24 25 25 24 24 25 26 26 27 27 27 28 28 28 28 29 30
18 18 17 17 17 17 18 18 19 18 18 19 19 19 19 20 20 20 21 21 21 21 21 22 22 23 24 24 25 25 26 26 26 27 27 28 28 29 30 30 30 30 30
19 19 19 18 19 19 19 20 20 20 19 19 20 21 21 21 21 22 22 22 22 22 22 23 24 25 25 26 26 26 26 26 27 28 28 28 29 29 30 30 31 32 33
20 20 20 20 20 20 20 21 21 20 20 20 21 21 22 22 22 22 23 22 22 22 23 24 25 25 26 26 26 26 27 27 28 28 29 29 30 30 31 32 32 33 34
21 22 21 21 21 22 22 21 21 20 21 21 22 22 23 23 23 22 22 23 23 23 24 24 24 25 26 26 27 27 28 28 27 28 29 29 30 30 31 31 32 33 34
23 23 23 23 23 23 23 23 23 22 22 23 23 23 23 23 22 22 22 23 23 22 22 22 23 24 25 26 27 27 28 28 28 29 29 29 30 31 31 32 33 33 33
24 24 24 24 23 23 24 24 23 23 23 23 24 23 23 24 24 23 23 22 22 23 23 24 24 25 26 26 26 27 27 28 28 28 29 30 30 31 31 32 32 33 33
25 25 25 24 24 23 24 24 23 23 23 23 23 23 23 24 24 24 23 23 24 24 24 25 25 26 26 26 26 27 28 28 29 29 30 31 31 32 32 32 32 33 33
26 25 25 25 24 24 23 24 24 24 23 24 24 24 24 25 25 25 24 25 25 25 25 26 26 26 27 27 27 27 28 28 29 30 30 30 31 32 32 32 32 33 33
Wind_Direction
87 105 120 128 135 127 131 137 138 137 139 148 163 176 181 173 170 170 175 185 191 182 181 194 204 214 224 231 238 258 255 256 261 266 273 280 287 290 284 281 284 286 286
60 116 157 152 141 135 135 143 151 153 150 158 171 176 175 178 182 176 190 198 200 204 215 230 235 244 247 244 250 260 267 271 274 276 281 282 286 287 284 282 282 282 284
9 356 201 202 208 209 180 171 182 186 194 205 207 212 204 194 195 198 208 216 224 227 237 245 248 249 257 258 256 262 269 276 282 283 282 284 288 289 286 286 287 285 285
343 325 259 240 249 251 248 239 233 239 239 243 250 245 235 231 230 232 233 236 241 243 248 253 255 258 261 260 264 267 270 276 279 284 285 286 290 291 290 289 287 287 286
324 307 285 273 260 258 259 260 255 258 259 261 264 262 254 250 252 257 255 249 250 251 254 256 259 262 265 265 266 266 270 275 278 282 283 284 285 288 289 290 288 285 283
326 314 292 278 272 263 263 266 264 263 263 265 265 263 264 262 262 268 265 260 258 259 260 262 263 264 267 269 269 269 271 275 278 281 283 282 283 283 283 285 287 287 285
321 319 309 280 272 270 264 265 265 265 267 269 269 268 268 268 268 269 271 265 262 263 264 266 267 266 270 271 272 273 273 277 279 281 282 282 281 281 281 280 283 284 285
316 309 305 293 282 279 277 275 270 267 268 270 271 271 273 275 274 274 273 269 265 262 262 267 268 269 272 273 273 272 274 279 280 281 283 282 281 280 281 281 280 281 283
313 307 298 295 291 288 285 283 283 278 275 273 272 272 273 275 276 276 272 267 266 263 266 266 267 268 272 275 274 274 276 279 281 282 283 283 282 282 280 279 280 281 282
320 310 300 293 290 289 287 285 284 283 282 280 280 278 277 278 279 275 273 271 271 270 271 272 272 271 271 273 275 276 277 280 281 280 281 281 281 281 281 280 281 280 280
319 315 309 302 295 290 286 286 286 286 285 283 283 282 282 280 279 277 275 275 273 271 271 271 271 272 273 274 275 276 277 278 279 279 280 280 280 280 280 280 280 281 280
320 315 310 305 299 293 289 287 287 287 288 286 285 285 285 284 280 277 277 277 276 275 274 273 274 274 274 275 276 277 277 280 280 280 281 281 281 281 280 280 281 281 280
326 318 312 306 301 300 298 293 289 289 289 288 288 287 288 286 283 279 280 278 278 278 277 276 277 276 275 277 278 279 279 280 280 281 281 281 282 281 280 280 280 280 280
328 321 317 311 304 301 301 297 294 293 293 292 290 289 290 288 284 281 280 279 279 279 278 276 276 276 277 278 279 280 280 280 279 281 281 280 280 281 280 280 280 280 280
333 329 322 317 311 306 303 299 298 296 294 293 292 292 293 294 288 285 284 282 281 279 279 279 278 278 280 279 278 279 281 282 281 280 281 280 280 281 280 281 281 281 281
335 331 326 320 316 313 311 306 301 300 298 296 295 296 297 295 293 289 286 283 281 281 280 280 280 281 283 282 280 281 281 283 282 282 282 281 280 280 280 282 282 281 281
334 332 330 325 318 312 310 308 305 302 300 299 297 297 298 297 297 293 289 287 285 283 282 282 282 283 284 285 283 281 282 284 283 283 281 280 281 281 281 282 281 282 281
331 330 330 326 322 317 312 310 306 303 302 302 301 300 299 298 295 295 293 291 289 288 286 287 286 286 288 287 285 284 285 285 285 286 285 283 283 284 283 282 282 281 282
326 325 325 325 323 320 315 313 309 303 301 301 301 301 300 300 298 296 297 295 293 290 288 288 289 289 288 289 287 286 286 285 285 286 286 286 285 285 286 284 283 282 282
324 321 320 320 321 320 317 314 311 307 302 301 302 301 301 300 299 296 295 296 295 292 290 290 290 290 289 288 288 288 287 287 287 287 286 286 286 287 287 285 285 284 283
320 318 316 316 317 318 317 315 311 307 304 303 303 304 303 302 301 299 297 294 293 292 291 290 290 290 290 289 289 288 288 287 288 287 286 286 287 287 286 286 286 286 285
319 317 315 314 314 315 315 315 311 308 305 305 306 306 306 304 302 303 300 296 294 294 293 291 290 290 290 290 289 289 290 288 288 289 291 292 291 290 289 288 288 288 287
319 318 315 313 312 313 314 313 309 308 306 304 304 305 305 307 306 305 302 300 298 297 296 295 294 294 294 293 292 292 291 289 291 293 293 292 291 291 290 290 289 288 288
319 319 318 314 313 313 313 313 312 310 307 305 304 304 304 306 306 305 305 304 305 304 301 299 297 296 294 295 294 295 294 293 293 294 294 294 294 293 292 292 291 290 291
317 317 317 316 314 312 312 313 312 311 309 307 307 306 304 305 306 307 306 305 305 303 302 299 297 296 295 294 295 295 295 295 296 296 296 295 294 294 294 293 293 292 291
314 315 316 315 314 312 312 313 313 311 308 307 306 305 305 305 305 305 304 304 303 303 301 299 298 297 296 296 296 295 295 296 296 296 297 296 295 295 295 295 295 294 293
Height
5884 5884 5884 5885 5885 5885 5886 5886 5886 5887 5887 5887 5888 5888 5889 5889 5890 5891 5892 5892 5893 5894 5895 5896 5896 5897 5897 5897 5898 5898 5898 5899 5899 5899 5899 5899 5900 5899 5899 5899 5899 5899 5899
5884 5885 5885 5885 5886 5886 5886 5886 5887 5887 5888 5888 5888 5889 5889 5890 5890 5891 5891 5892 5893 5894 5894 5895 5896 5896 5897 5897 5897 5898 5898 5898 5898 5898 5898 5898 5898 5898 5898 5897 5897 5897 5897
5885 5885 5885 5886 5886 5886 5886 5887 5887 5887 5888 5888 5888 5889 5889 5889 5890 5891 5891 5892 5893 5893 5894 5894 5895 5895 5896 5896 5896 5896 5897 5897 5897 5897 5897 5896 5896 5896 5895 5895 5895 5895 5895
5885 5885 5886 5886 5886 5886 5887 5887 5887 5887 5888 5888 5888 5889 5889 5889 5890 5890 5891 5891 5892 5892 5893 5893 5894 5894 5894 5895 5895 5895 5895 5895 5895 5895 5895 5895 5894 5894 5893 5893 5893 5892 5892
5885 5885 5885 5886 5886 5886 5886 5886 5887 5887 5887 5888 5888 5888 5888 5889 5889 5889 5889 5890 5890 5891 5891 5892 5892 5892 5893 5893 5893 5893 5893 5893 5893 5893 5892 5892 5892 5892 5891 5891 5890 5890 5889
5885 5885 5885 5885 5885 5886 5886 5886 5886 5886 5886 5887 5887 5888 5888 5888 5888 5888 5888 5888 5888 5889 5889 5890 5890 5890 5890 5890 5890 5891 5890 5890 5890 5890 5889 5889 5889 5888 5888 5888 5887 5887 5886
5884 5884 5884 5884 5884 5885 5885 5885 5885 5885 5885 5885 5886 5886 5886 5886 5886 5886 5886 5886 5886 5886 5886 5887 5887 5887 5888 5888 5888 5887 5887 5887 5887 5886 5886 5886 5885 5885 5884 5884 5884 5883 5883
5884 5883 5883 5883 5883 5883 5883 5884 5884 5884 5884 5884 5884 5884 5884 5885 5884 5884 5884 5884 5883 5883 5883 5884 5884 5884 5885 5884 5884 5884 5884 5883 5883 5883 5882 5882 5881 5881 5880 5880 5879 5879 5879
5883 5882 5882 5882 5882 5882 5882 5882 5882 5882 5882 5882 5882 5882 5882 5882 5881 5881 5881 5880 5879 5879 5879 5880 5880 5881 5881 5881 5880 5880 5880 5880 5879 5878 5878 5877 5877 5876 5876 5875 5875 5874 5874
5882 5881 5881 5881 5880 5880 5880 5880 5880 5880 5879 5879 5879 5879 5879 5878 5878 5878 5877 5877 5876 5876 5876 5876 5877 5877 5877 5876 5876 5876 5876 5875 5875 5874 5873 5873 5872 5872 5871 5870 5870 5869 5868
5881 5880 5879 5879 5878 5878 5878 5878 5877 5877 5876 5876 5875 5875 5875 5874 5874 5874 5874 5873 5873 5873 5873 5873 5872 5872 5872 5872 5872 5871 5871 5870 5870 5869 5869 5868 5867 5866 5866 5865 5864 5864 5863
5880 5879 5878 5877 5876 5876 5875 5875 5874 5874 5873 5873 5872 5871 5871 5870 5870 5870 5869 5869 5869 5869 5868 5868 5868 5867 5867 5867 5867 5866 5865 5865 5865 5864 5863 5862 5862 5861 5860 5859 5858 5858 5857
5879 5877 5876 5875 5874 5873 5873 5872 5871 5870 5870 5869 5868 5868 5867 5866 5865 5865 5865 5864 5864 5864 5863 5863 5863 5862 5862 5862 5861 5861 5860 5860 5859 5858 5857 5856 5856 5855 5854 5853 5853 5852 5851
5877 5876 5874 5873 5872 5871 5870 5869 5868 5867 5866 5866 5865 5864 5863 5862 5861 5860 5860 5860 5859 5859 5858 5858 5857 5857 5856 5856 5856 5855 5854 5854 5853 5852 5851 5850 5850 5849 5848 5847 5846 5845 5844
5876 5874 5872 5871 5870 5868 5867 5866 5865 5864 5863 5862 5861 5860 5858 5857 5856 5855 5855 5854 5854 5853 5853 5852 5852 5851 5850 5850 5850 5849 5848 5847 5846 5846 5845 5844 5843 5842 5841 5840 5839 5838 5837
5874 5872 5870 5869 5867 5866 5865 5863 5862 5861 5860 5858 5857 5856 5854 5853 5852 5851 5850 5849 5848 5848 5847 5846 5846 5845 5845 5844 5844 5843 5842 5841 5840 5839 5838 5837 5836 5835 5834 5833 5832 5831 5830
5872 5870 5868 5866 5864 5863 5862 5860 5859 5858 5856 5855 5853 5852 5850 5849 5847 5846 5845 5844 5843 5842 5841 5841 5840 5839 5838 5838 5837 5836 5835 5834 5833 5832 5831 5830 5829 5828 5827 5826 5824 5823 5822
5870 5868 5865 5863 5861 5860 5858 5857 5855 5854 5852 5851 5849 5847 5846 5844 5842 5841 5839 5838 5837 5836 5836 5835 5834 5833 5832 5831 5830 5829 5828 5827 5826 5825 5824 5823 5822 5820 5819 5818 5816 5815 5814
5868 5865 5863 5861 5859 5857 5855 5853 5851 5849 5848 5846 5845 5843 5842 5840 5838 5836 5835 5833 5832 5831 5830 5829 5828 5827 5826 5825 5823 5822 5821 5820 5819 5817 5816 5815 5813 5812 5811 5810 5808 5807 5805
5865 5863 5860 5858 5856 5853 5851 5849 5847 5845 5843 5842 5840 5839 5837 5835 5833 5831 5830 5828 5826 5825 5824 5823 5822 5820 5819 5818 5817 5815 5814 5812 5811 5809 5808 5807 5805 5804 5802 5801 5799 5798 5796
5862 5860 5857 5855 5852 5850 5847 5845 5843 5841 5839 5837 5836 5834 5832 5830 5828 5826 5824 5822 5821 5819 5818 5817 5815 5814 5812 5811 5809 5808 5806 5804 5803 5801 5800 5799 5797 5795 5794 5792 5790 5788 5786
5858 5856 5854 5851 5848 5846 5843 5841 5838 5836 5834 5833 5831 5829 5827 5824 5822 5820 5818 5817 5815 5813 5812 5810 5808 5807 5805 5804 5802 5801 5799 5797 5795 5794 5792 5791 5789 5787 5784 5782 5780 5778 5776
5854 5852 5849 5846 5844 5841 5839 5836 5834 5832 5830 5827 5826 5824 5822 5819 5817 5815 5813 5811 5809 5807 5806 5804 5802 5800 5798 5797 5795 5793 5791 5790 5788 5786 5784 5782 5780 5778 5775 5773 5770 5768 5766
5850 5848 5845 5842 5839 5836 5834 5831 5829 5827 5824 5822 5820 5818 5816 5814 5812 5810 5808 5805 5803 5801 5799 5798 5796 5794 5792 5789 5788 5786 5784 5782 5780 5777 5775 5774 5771 5768 5766 5763 5761 5758 5756
5846 5843 5840 5836 5834 5831 5829 5826 5824 5821 5819 5817 5815 5812 5810 5808 5807 5804 5802 5800 5798 5796 5793 5791 5789 5787 5784 5782 5780 5778 5776 5774 5772 5769 5767 5765 5762 5759 5757 5754 5751 5748 5746
5840 5837 5834 5831 5828 5826 5823 5821 5818 5816 5814 5812 5809 5807 5805 5803 5801 5798 5796 5794 5792 5789 5787 5784 5782 5780 5777 5775 5773 5770 5768 5766 5763 5761 5758 5755 5752 5749 5747 5744 5741 5739 5736